P/2011 W1 ( PanSTARRS ) 2022

Japanese version
Home page
Updated on January 21, 2023

---------------------------------------------------------------------

* Profile

* Orbital Elements

Epoch 2022 Jan. 21.0 TT = JDT 2459600.5
T 2022 Feb. 7.71450 TT                                  MPC
q   3.3220096            (2000.0)            P               Q
n   0.09787567     Peri.  282.75005     +0.09456655     -0.99531214
a   4.6632235      Node   161.78664     +0.93668653     +0.08206334
e   0.2876152      Incl.    3.71854     +0.33715799     +0.05117960
P  10.1
From 160 observations 2011 Nov. 23-2013 Feb. 9, mean residual 0".5.

* Magnitudes Graph

        m1 = 13.5 + 5 log d + 10.0 log r

        * Gray curve is:  m1 = 6.0 + 5 log d + 20.0 log r

---------------------------------------------------------------------

The orbital elements are published on M.P.E.C. 2013-C52.
The magnitudes graphs are made with Comet for Windows.

---------------------------------------------------------------------

Copyright(C) Seiichi Yoshida (comet@aerith.net). All rights reserved.